[[{"header":{"parameterUnit":"m.s-1","parameterCategory":1,"la1":30.2991,"la2":30.254,"lo1":-89.0895,"lo2":-89.0444,"dy":0.0017,"dx":0.0017,"nx":28,"ny":28,"refTime":"2023-11-13T03:00:00:Z","depth":0,"parameterNumber":2,"parameterNumberName":"U-component_of_WINDS"},"data":[0,0,0,0,0,0,0,0,0,0,0,0,0,0,0,0,0,0,0,0,0,0,0,0,0,0,0,0,0,0,0,0,0,0,0,0,0,0,0,0,0,0,0,0,0,0,0,0,0,0,0,0,0,0,0,0,0,0,-3.0796,-3.0796,0,-3.085,-3.0851,-3.0851,-3.0795,-3.0792,-3.079,-3.0788,-3.0844,-3.0848,-3.0851,0,0,0,0,0,0,0,0,0,0,0,0,0,-3.0642,-3.0645,-3.0795,-3.0796,-3.0797,-3.085,-3.0851,-3.0851,-3.0795,-3.0792,-3.079,-3.0787,-3.0843,-3.0847,-3.0852,0,0,0,0,0,0,0,0,0,0,0,0,0,-3.0704,-3.0646,-3.0795,-3.0775,-3.0774,-3.085,-3.0851,-3.0852,-3.0796,-3.0792,-3.0789,-3.0786,-3.0842,-3.0847,-3.0852,-3.0951,0,0,-3.0869,-3.0871,0,0,0,0,0,0,0,0,-3.0701,-3.071,-3.0777,-3.0777,-3.0775,-3.0812,-3.0817,-3.0885,-3.0796,-3.0787,-3.0788,-3.0784,-3.0836,-3.0842,-3.0859,-3.0954,-3.0956,-3.0869,-3.0872,-3.0875,-3.0876,0,0,0,0,0,0,0,-3.0696,-3.0707,-3.0817,-3.0778,-3.0777,-3.0763,-3.0768,-3.083,-3.083,-3.0788,-3.0784,-3.0791,-3.0835,-3.0854,-3.086,-3.0957,-3.0869,-3.0874,-3.0877,-3.0879,-3.1135,-3.1139,0,0,0,0,0,0,-3.0694,-3.0704,-3.0815,-3.0819,-3.0729,-3.0769,-3.0774,-3.0804,-3.0829,-3.083,-3.0794,-3.0788,-3.0847,-3.0854,-3.0862,-3.098,-3.0874,-3.0879,-3.0883,-3.1132,-3.1136,-3.114,0,0,0,0,0,0,-3.0691,-3.0705,-3.0813,-3.076,-3.0773,-3.0775,-3.0808,-3.0807,-3.0826,-3.0833,-3.0833,-3.0814,-3.0845,-3.0855,-3.0929,-3.0981,-3.0882,-3.0887,-3.1127,-3.1133,-3.1138,-3.1216,0,0,0,0,0,0,-3.0687,-3.0704,-3.0742,-3.0762,-3.0776,-3.088,-3.0811,-3.081,-3.0835,-3.0828,-3.0852,-3.0853,-3.0843,-3.0922,-3.0935,-3.0987,-3.0891,-3.1123,-3.113,-3.1136,-3.1209,-3.1224,-3.1236,0,0,0,0,0,-3.0682,-3.0762,-3.0744,-3.0758,-3.0823,-3.0883,-3.0891,-3.0878,-3.0839,-3.0877,-3.0882,-3.0852,-3.0973,-3.093,-3.0944,-3.0998,-3.1119,-3.1128,-3.1136,-3.1203,-3.1221,-3.1236,0,0,0,0,0,0,-3.0748,-3.0764,-3.0745,-3.0833,-3.0857,-3.0873,-3.0921,-3.0898,-3.0933,-3.0925,-3.0908,-3.0914,-3.0993,-3.1003,-3.0955,-3.1095,-3.104,-3.1051,-3.1086,-3.1103,-3.1117,-3.1113,-3.0895,0,0,0,0,0,-3.0773,-3.0821,-3.0831,-3.0909,-3.0922,-3.0919,-3.0945,-3.0933,-3.0957,-3.0967,-3.0977,-3.1002,-3.1045,-3.1075,-3.1115,-3.121,-3.1214,-3.1254,-3.1267,-3.1279,-3.1289,-3.134,-3.1358,-3.1167,-3.1167,-3.1166,0,0,-3.0825,-3.084,-3.0871,-3.0922,-3.094,-3.0989,-3.0928,-3.0983,-3.102,-3.0975,-3.1047,-3.1055,-3.1081,-3.1167,-3.1205,-3.1177,-3.1343,-3.1289,-3.1298,-3.1302,-3.135,-3.1369,-3.1385,-3.1172,-3.1171,-3.117,0,0,-3.0946,-3.0961,-3.1028,-3.1046,-3.1073,-3.107,-3.1086,-3.1106,-3.111,-3.1181,-3.1149,-3.1192,-3.1267,-3.1287,-3.1307,-3.1435,-3.1409,-3.1448,-3.152,-3.157,-3.1585,-3.1598,-3.1645,-3.1661,-3.1458,-3.1459,-3.1459,0,-3.1008,-3.1081,-3.1065,-3.1122,-3.1146,-3.1107,-3.1174,-3.1193,-3.1231,-3.1249,-3.1217,-3.1311,-3.1326,-3.1415,-3.1446,-3.1464,-3.1482,-3.1446,-3.1584,-3.1597,-3.1609,-3.1653,-3.1671,-3.1463,-3.1463,-3.1462,-3.1462,0,-3.1156,-3.1207,-3.1257,-3.1296,-3.1325,-3.1387,-3.138,-3.1411,-3.1396,-3.1397,-3.147,-3.1487,-3.153,-3.155,-3.1536,-3.1638,-3.162,-3.1587,-3.1531,-3.1633,-3.1674,-3.169,-3.147,-3.1468,-3.1467,-3.1466,0,0,-3.1322,-3.1349,-3.1368,-3.1385,-3.1411,-3.1451,-3.151,-3.1552,-3.158,-3.1608,-3.1658,-3.1722,-3.1691,-3.1714,-3.1702,-3.1745,-3.1846,-3.1707,-3.1707,-3.1733,-3.196,-3.1986,-3.2006,-3.1828,-3.1831,-3.1834,-3.1958,0,-3.1444,-3.1548,-3.1534,-3.1634,-3.1682,-3.1645,-3.1697,-3.1719,-3.1721,-3.1762,-3.1764,-3.181,-3.1765,-3.1779,-3.1821,-3.1825,-3.1892,-3.1816,-3.1875,-3.1878,-3.1871,-3.2027,-3.2055,-3.2172,-3.1974,-3.1977,-3.1979,0,-3.16,-3.1634,-3.1739,-3.1757,-3.1777,-3.1824,-3.1861,-3.19,-3.1924,-3.1922,-3.1948,-3.1927,-3.1987,-3.1929,-3.2012,-3.1961,-3.1984,-3.199,-3.1994,-3.2,-3.1936,-3.2039,-3.2209,-3.2227,-3.2004,-3.2002,-3.2,0,-3.1712,-3.1783,-3.1855,-3.187,-3.1894,-3.1928,-3.1939,-3.1959,-3.1985,-3.2018,-3.2035,-3.2074,-3.2096,-3.2126,-3.2117,-3.2075,-3.2202,-3.2143,-3.2203,-3.2203,-3.2232,-3.2231,-3.241,-3.2245,-3.2245,-3.2245,-3.2244,0,-3.1851,-3.1917,-3.1905,-3.195,-3.2022,-3.2006,-3.2078,-3.2085,-3.2103,-3.2148,-3.2118,-3.2161,-3.2145,-3.2187,-3.218,-3.225,-3.226,-3.2261,-3.2258,-3.2264,-3.2265,-3.228,-3.2273,-3.2249,-3.2248,-3.2248,-3.2247,0,-3.1989,-3.1983,-3.206,-3.2075,-3.2081,-3.2134,-3.2147,-3.2189,-3.2188,-3.2245,-3.2258,-3.2257,-3.2305,-3.2298,-3.2351,-3.2346,-3.2434,-3.2421,-3.2426,-3.2424,-3.2485,-3.2479,-3.2681,-3.2707,-3.2525,-3.2526,-3.2528,0,-3.2078,-3.2128,-3.2149,-3.2177,-3.219,-3.2236,-3.2262,-3.2247,-3.2276,-3.2307,-3.2345,-3.239,-3.2425,-3.2503,-3.2508,-3.2548,-3.2537,-3.2604,-3.2543,-3.2547,-3.2539,-3.2537,-3.2542,-3.2617,-3.2619,-3.2621,-3.2622,0,-3.2238,-3.2233,-3.2272,-3.2311,-3.2343,-3.2373,-3.2399,-3.2424,-3.2411,-3.2445,-3.2494,-3.2521,-3.2575,-3.262,-3.2658,-3.2669,-3.2645,-3.2641,-3.2658,-3.2665,-3.2666,-3.2668,-3.2461,-3.2637,-3.2636,-3.2635,-3.2634,-3.2633,-3.2355,-3.2398,-3.2419,-3.2464,-3.2482,-3.2508,-3.2548,-3.2552,-3.2592,-3.2635,-3.2623,-3.2679,-3.27,-3.2748,-3.2764,-3.2807,-3.2782,-3.2805,-3.2811,-3.2818,-3.2825,-3.2658,-3.2813,-3.2813,-3.2812,-3.2812,-3.2812,0,-3.2515,-3.2526,-3.2567,-3.2605,-3.2641,-3.2613,-3.2641,-3.2672,-3.2721,-3.2743,-3.2778,-3.2834,-3.2878,-3.2885,-3.2926,-3.2959,-3.2949,-3.2971,-3.2969,-3.2972,-3.2845,-3.2827,-3.2978,-3.2978,-3.2978,-3.2978,-3.2978,-3.2978,-3.2602,-3.2673,-3.267,-3.2749,-3.276,-3.2814,-3.2833,-3.2856,-3.2873,-3.2937,-3.2973,-3.2977,-3.2994,-3.3036,-3.3074,-3.3075,-3.3093,-3.3119,-3.3116,-3.2997,-3.2981,-3.2965,-3.2948,-3.3123,-3.3123,-3.324,-3.3241,-3.3242]},{"header":{"parameterUnit":"m.s-1","parameterCategory":1,"la1":30.2991,"la2":30.254,"lo1":-89.0895,"lo2":-89.0444,"dy":0.0017,"dx":0.0017,"nx":28,"ny":28,"refTime":"2023-11-13T03:00:00:Z","depth":0,"parameterNumber":3,"parameterNumberName":"V-component_of_WINDS"},"data":[0,0,0,0,0,0,0,0,0,0,0,0,0,0,0,0,0,0,0,0,0,0,0,0,0,0,0,0,0,0,0,0,0,0,0,0,0,0,0,0,0,0,0,0,0,0,0,0,0,0,0,0,0,0,0,0,0,0,-4.8302,-4.8302,0,-4.8326,-4.8326,-4.8326,-4.8268,-4.8266,-4.8264,-4.8262,-4.8284,-4.8286,-4.8288,0,0,0,0,0,0,0,0,0,0,0,0,0,-4.8203,-4.8206,-4.8302,-4.8302,-4.8303,-4.8325,-4.8326,-4.8326,-4.8268,-4.8266,-4.8263,-4.8261,-4.8283,-4.8286,-4.8289,0,0,0,0,0,0,0,0,0,0,0,0,0,-4.8239,-4.8206,-4.8302,-4.8276,-4.8274,-4.8325,-4.8326,-4.8326,-4.8268,-4.8266,-4.8263,-4.826,-4.8282,-4.8286,-4.8289,-4.8365,0,0,-4.8299,-4.8301,0,0,0,0,0,0,0,0,-4.8237,-4.8242,-4.828,-4.8278,-4.8276,-4.8291,-4.8299,-4.8339,-4.8269,-4.8271,-4.8262,-4.8259,-4.8288,-4.8291,-4.8301,-4.8366,-4.8367,-4.83,-4.8302,-4.8303,-4.8304,0,0,0,0,0,0,0,-4.8234,-4.8241,-4.8311,-4.828,-4.8278,-4.8263,-4.8265,-4.8306,-4.8294,-4.827,-4.8266,-4.827,-4.8287,-4.8298,-4.8301,-4.8367,-4.83,-4.8303,-4.8305,-4.8306,-4.8495,-4.8498,0,0,0,0,0,0,-4.8235,-4.8239,-4.831,-4.8312,-4.8249,-4.8267,-4.8269,-4.8289,-4.8294,-4.8292,-4.8272,-4.8267,-4.8294,-4.8298,-4.8302,-4.8391,-4.8303,-4.8306,-4.8308,-4.8492,-4.8496,-4.8499,0,0,0,0,0,0,-4.8234,-4.8242,-4.8309,-4.8274,-4.8282,-4.8271,-4.8294,-4.8291,-4.8302,-4.8295,-4.8293,-4.8286,-4.8292,-4.8297,-4.835,-4.8391,-4.8308,-4.8311,-4.8489,-4.8493,-4.8497,-4.8571,0,0,0,0,0,0,-4.8231,-4.8242,-4.8272,-4.8276,-4.8284,-4.8358,-4.8297,-4.8293,-4.8309,-4.8302,-4.8308,-4.8306,-4.829,-4.8345,-4.8353,-4.8394,-4.8314,-4.8485,-4.8491,-4.8496,-4.8565,-4.8577,-4.8588,0,0,0,0,0,-4.8228,-4.8291,-4.8274,-4.8283,-4.8321,-4.8361,-4.8365,-4.8346,-4.8312,-4.8341,-4.8337,-4.8306,-4.8385,-4.8351,-4.836,-4.8402,-4.8482,-4.8489,-4.8495,-4.8559,-4.8575,-4.8588,0,0,0,0,0,0,-4.8292,-4.8291,-4.8272,-4.8339,-4.835,-4.8351,-4.8387,-4.8363,-4.8384,-4.8377,-4.8351,-4.8353,-4.841,-4.8411,-4.8373,-4.8476,-4.8428,-4.8437,-4.8473,-4.8488,-4.8499,-4.8498,-4.8317,0,0,0,0,0,-4.8314,-4.8347,-4.8344,-4.8403,-4.841,-4.8398,-4.8414,-4.8399,-4.8409,-4.8414,-4.8413,-4.8424,-4.8451,-4.8469,-4.8494,-4.8564,-4.8564,-4.8598,-4.8609,-4.8619,-4.8627,-4.8664,-4.8678,-4.8521,-4.8521,-4.8521,0,0,-4.8359,-4.8363,-4.8386,-4.8416,-4.8424,-4.8458,-4.8402,-4.8441,-4.8466,-4.8419,-4.8469,-4.8469,-4.8479,-4.8541,-4.8568,-4.8544,-4.867,-4.8628,-4.8635,-4.8638,-4.8672,-4.8687,-4.87,-4.8525,-4.8524,-4.8524,0,0,-4.846,-4.8467,-4.8516,-4.8525,-4.8536,-4.8528,-4.854,-4.8544,-4.8542,-4.8592,-4.8558,-4.8586,-4.8634,-4.8642,-4.8653,-4.8756,-4.8728,-4.8765,-4.8826,-4.8862,-4.8874,-4.8885,-4.8921,-4.8935,-4.8772,-4.8773,-4.8773,0,-4.8515,-4.8566,-4.8545,-4.8586,-4.86,-4.856,-4.8609,-4.8618,-4.8637,-4.8647,-4.862,-4.8679,-4.8683,-4.8746,-4.8771,-4.8781,-4.8793,-4.8764,-4.8874,-4.8885,-4.8895,-4.8929,-4.8943,-4.8777,-4.8776,-4.8776,-4.8776,0,-4.8633,-4.8668,-4.8707,-4.8727,-4.8745,-4.8791,-4.8775,-4.8796,-4.8778,-4.8772,-4.8823,-4.8826,-4.8851,-4.8864,-4.8847,-4.8925,-4.8909,-4.8879,-4.8829,-4.8914,-4.8946,-4.8959,-4.8783,-4.8782,-4.878,-4.8779,0,0,-4.8775,-4.8782,-4.8797,-4.8805,-4.8815,-4.8842,-4.8884,-4.8909,-4.8927,-4.8941,-4.8976,-4.9017,-4.8988,-4.9,-4.8984,-4.9015,-4.9096,-4.898,-4.898,-4.9002,-4.9182,-4.9205,-4.9221,-4.9078,-4.908,-4.9082,-4.9181,0,-4.8874,-4.8949,-4.893,-4.9004,-4.9036,-4.8998,-4.9035,-4.9044,-4.9039,-4.9065,-4.9059,-4.9089,-4.9049,-4.9056,-4.9085,-4.908,-4.9132,-4.9073,-4.9109,-4.9111,-4.9108,-4.9237,-4.9262,-4.9355,-4.9193,-4.9195,-4.9197,0,-4.9,-4.902,-4.9097,-4.9101,-4.9113,-4.9147,-4.9168,-4.9193,-4.9203,-4.9197,-4.921,-4.9187,-4.9228,-4.9179,-4.9235,-4.9195,-4.9208,-4.9208,-4.9211,-4.9214,-4.9159,-4.9243,-4.9384,-4.9398,-4.9216,-4.9215,-4.9213,0,-4.9096,-4.9142,-4.9193,-4.9202,-4.9207,-4.9232,-4.9235,-4.9242,-4.9258,-4.9276,-4.9285,-4.9307,-4.932,-4.9337,-4.932,-4.9285,-4.9378,-4.9327,-4.9374,-4.9374,-4.9395,-4.9394,-4.954,-4.9404,-4.9404,-4.9404,-4.9403,0,-4.9209,-4.9257,-4.9236,-4.9268,-4.9321,-4.9299,-4.9351,-4.935,-4.9356,-4.9386,-4.9355,-4.9383,-4.9359,-4.9386,-4.9372,-4.942,-4.9426,-4.9422,-4.9418,-4.9425,-4.9426,-4.9434,-4.9427,-4.9407,-4.9407,-4.9406,-4.9405,0,-4.9325,-4.9313,-4.9367,-4.9368,-4.9369,-4.9408,-4.9409,-4.9438,-4.943,-4.9469,-4.9476,-4.9465,-4.9494,-4.9479,-4.9509,-4.95,-4.9562,-4.9549,-4.9559,-4.9556,-4.9603,-4.9599,-4.9759,-4.9779,-4.9631,-4.9632,-4.9633,0,-4.9398,-4.9435,-4.944,-4.9458,-4.9464,-4.9494,-4.951,-4.9489,-4.9506,-4.9519,-4.9547,-4.9573,-4.9594,-4.9642,-4.9636,-4.9659,-4.9646,-4.9701,-4.9649,-4.9655,-4.9647,-4.9645,-4.9648,-4.9711,-4.9713,-4.9714,-4.9715,0,-4.9529,-4.9521,-4.9546,-4.9569,-4.9589,-4.9605,-4.9619,-4.9635,-4.9615,-4.9636,-4.9666,-4.9682,-4.9713,-4.974,-4.9759,-4.9761,-4.9735,-4.9732,-4.9743,-4.9751,-4.9756,-4.9754,-4.9587,-4.9728,-4.9727,-4.9726,-4.9725,-4.9725,-4.9626,-4.9656,-4.9664,-4.9693,-4.9701,-4.9714,-4.9742,-4.9738,-4.9762,-4.9787,-4.9772,-4.9807,-4.9815,-4.9838,-4.9844,-4.9871,-4.9849,-4.9866,-4.987,-4.9875,-4.9881,-4.9751,-4.9874,-4.9874,-4.9873,-4.9873,-4.9873,0,-4.9755,-4.9758,-4.9784,-4.9805,-4.9827,-4.98,-4.9814,-4.9834,-4.9866,-4.9875,-4.9896,-4.993,-4.9955,-4.9951,-4.9974,-4.9996,-4.9985,-5.0003,-5.0001,-5.0002,-4.99,-4.9887,-5.0012,-5.0012,-5.0012,-5.0012,-5.0012,-5.0012,-4.9824,-4.9874,-4.9867,-4.9921,-4.9923,-4.9958,-4.9968,-4.998,-4.9987,-5.0027,-5.0048,-5.0045,-5.0049,-5.0072,-5.0094,-5.0092,-5.0102,-5.0125,-5.0118,-5.0023,-5.0009,-4.9996,-4.9984,-5.0127,-5.0127,-5.0218,-5.0219,-5.0219]}]]